Погода в Гулистане

Узбекистан     40°18′49″N   67°58′34″E
темп.,
°C
ветер,
м/с
пор.,
м/с
влажн.,
%
обл.,
%
осадки,
мм/ч
давл.,
гПа
погр.,
м
19 января, ср
ср1923:00+9вюв2469100 0.0 1010154
02:00+8зюз2275100 0.3 101026
05:00+9з8138097 1.6 1013876
08:00+6з12207333 0.4 1015935
11:00+8з1118607 0.4 10181256
14:00+8з1319507 0.0 10191348
17:00+6юз914533 0.0 1021851
20:00+4юз6106239 0.0 1024507
20 января, чт
чт2023:00+3зсз226631 0.0 1025105
02:00+2ссв227499 0.0 1026183
05:00+3всв2376100 0.0 1025445
08:00+3в337839 0.0 1025402
11:00+5в35645 0.0 1024563
14:00+9в57495 0.0 10191033
17:00+9в610480 0.0 1017811
20:00+6всв411580 0.0 1016384
21 января, пт
пт2123:00+6в917570 0.0 1013646
02:00+6в917560 0.0 1010665
05:00+5вюв713560 0.0 1009473
08:00+3ююв24670 0.0 100991
11:00+8вюв34450 0.0 1009325
14:00+13вюв22260 0.0 1007480
17:00+12ююв2229100 0.0 100926
20:00+10зюз3440100 0.0 101267
22 января, сб
сб2223:00+9зюз91556100 0.0 1014601
02:00+8зюз51057100 0.0 1017462
05:00+6з5959100 0.0 1020595
08:00+5зюз4863100 0.0 1022743
11:00+5зюз6768100 0.4 1025908
14:00+5зсз4663100 0.1 10241028
17:00+3ссв4395100 0.1 1026287
20:00+3всв3397100 0.1 1027310
23 января, вс
вс2323:00+2в2197100 0.4 1027259
02:00+2в1196100 0.1 1026201
05:00+2в129399 0.3 1026304
08:00+2всв2397100 0.1 1027273
11:00+3всв3377100 0.3 1027636
14:00+4св2268100 0.0 1025881
17:00+5св2262100 0.0 1026828
20:00+4ссв1268100 0.1 1026494